Zurück zum Katalog

APRIZESAT 2

AktivKommunikationSSO
NORAD 28366·PAYLOAD·🇺🇸 United States

Gestartet Jun 29, 2004 von Baikonur Cosmodrome

Loading…

Nächste Überflüge (nächste 24 Stunden)

TLE

AktuellSource: Space-Track

Epoche: Sep 14, 2026, 09:58 UTC

1 28366U 04025A   26257.41557155  .00000074  00000-0  36205-4 0  9992
2 28366  98.1125  58.3968 0105076 341.4380  18.2987 14.38067112164463

Verfolge APRIZESAT 2 in Echtzeit mit AllMySat

Download on the App Store